Time,TemperatureF,DewpointF,PressureIn,WindDirection,WindDirectionDegrees,WindSpeedMPH,WindSpeedGustMPH,Humidity,HourlyPrecipIn,Conditions,Clouds,dailyrainin,SoftwareType,DateUTC
2013-02-11 00:02:00,1.0,-99.9,-100.00,North,-999,-999.0,-999.0,-999,0.00,,,0.08,,2013-02-11 05:02:00,
2013-02-11 00:12:00,1.0,-99.9,-100.00,North,-999,-999.0,-999.0,-999,0.00,,,0.08,,2013-02-11 05:12:00,
2013-02-11 01:42:00,-1.0,-99.9,-100.00,North,-999,-999.0,-999.0,-999,0.00,,,0.08,,2013-02-11 06:42:00,
2013-02-11 01:52:00,-1.0,-99.9,-100.00,North,-999,-999.0,-999.0,-999,0.00,,,0.08,,2013-02-11 06:52:00,
2013-02-11 02:02:00,-1.0,-99.9,-100.00,North,-999,-999.0,-999.0,-999,0.00,,,0.08,,2013-02-11 07:02:00,
2013-02-11 02:12:00,-1.0,-99.9,-100.00,North,-999,-999.0,-999.0,-999,0.00,,,0.08,,2013-02-11 07:12:00,
2013-02-11 02:52:00,-2.0,-99.9,-100.00,North,-999,-999.0,-999.0,-999,0.00,,,0.08,,2013-02-11 07:52:00,
2013-02-11 03:02:00,-2.0,-99.9,-100.00,North,-999,-999.0,-999.0,-999,0.00,,,0.08,,2013-02-11 08:02:00,
2013-02-11 03:11:00,-2.0,-99.9,-100.00,North,-999,-999.0,-999.0,-999,0.00,,,0.08,,2013-02-11 08:11:00,
2013-02-11 03:43:00,-3.0,-99.9,-100.00,North,-999,-999.0,-999.0,-999,0.00,,,0.08,,2013-02-11 08:43:00,
2013-02-11 03:52:00,-3.0,-99.9,-100.00,North,-999,-999.0,-999.0,-999,0.00,,,0.08,,2013-02-11 08:52:00,
2013-02-11 04:02:00,-3.0,-99.9,-100.00,North,-999,-999.0,-999.0,-999,0.00,,,0.08,,2013-02-11 09:02:00,
2013-02-11 04:12:00,-3.0,-99.9,-100.00,North,-999,-999.0,-999.0,-999,0.00,,,0.08,,2013-02-11 09:12:00,
2013-02-11 04:42:00,-2.0,-99.9,-100.00,North,-999,-999.0,-999.0,-999,0.00,,,0.08,,2013-02-11 09:42:00,
2013-02-11 04:52:00,-2.0,-99.9,-100.00,North,-999,-999.0,-999.0,-999,0.00,,,0.08,,2013-02-11 09:52:00,
2013-02-11 05:02:00,-2.0,-99.9,-100.00,North,-999,-999.0,-999.0,-999,0.00,,,0.08,,2013-02-11 10:02:00,
2013-02-11 05:11:00,-2.0,-99.9,-100.00,North,-999,-999.0,-999.0,-999,0.00,,,0.08,,2013-02-11 10:11:00,
2013-02-11 06:42:00,2.0,-99.9,-100.00,North,-999,-999.0,-999.0,-999,0.00,,,0.08,,2013-02-11 11:42:00,
2013-02-11 06:53:00,2.0,-99.9,-100.00,North,-999,-999.0,-999.0,-999,0.00,,,0.08,,2013-02-11 11:53:00,
2013-02-11 07:03:00,2.0,-99.9,-100.00,North,-999,-999.0,-999.0,-999,0.00,,,0.08,,2013-02-11 12:03:00,
2013-02-11 07:12:00,2.0,-99.9,-100.00,North,-999,-999.0,-999.0,-999,0.00,,,0.08,,2013-02-11 12:12:00,
2013-02-11 07:43:00,4.0,-99.9,-100.00,North,-999,-999.0,-999.0,-999,0.00,,,0.08,,2013-02-11 12:43:00,
2013-02-11 07:53:00,4.0,-99.9,-100.00,North,-999,-999.0,-999.0,-999,0.00,,,0.08,,2013-02-11 12:53:00,
2013-02-11 08:12:00,4.0,-99.9,-100.00,North,-999,-999.0,-999.0,-999,0.00,,,0.08,,2013-02-11 13:12:00,
2013-02-11 08:43:00,7.0,-99.9,-100.00,North,-999,-999.0,-999.0,-999,0.00,,,0.08,,2013-02-11 13:43:00,
2013-02-11 08:53:00,7.0,-99.9,-100.00,North,-999,-999.0,-999.0,-999,0.00,,,0.08,,2013-02-11 13:53:00,
2013-02-11 09:12:00,7.0,-99.9,-100.00,North,-999,-999.0,-999.0,-999,0.00,,,0.08,,2013-02-11 14:12:00,
2013-02-11 09:53:00,12.0,-99.9,-100.00,North,-999,-999.0,-999.0,-999,0.00,,,0.00,,2013-02-11 14:53:00,
2013-02-11 10:02:00,12.0,-99.9,-100.00,North,-999,-999.0,-999.0,-999,0.00,,,0.00,,2013-02-11 15:02:00,
2013-02-11 10:12:00,12.0,-99.9,-100.00,North,-999,-999.0,-999.0,-999,0.00,,,0.00,,2013-02-11 15:12:00,
2013-02-11 10:43:00,15.0,-99.9,-100.00,North,-999,-999.0,-999.0,-999,0.00,,,0.00,,2013-02-11 15:43:00,
2013-02-11 10:53:00,15.0,-99.9,-100.00,North,-999,-999.0,-999.0,-999,0.00,,,0.00,,2013-02-11 15:53:00,
2013-02-11 11:02:00,15.0,-99.9,-100.00,North,-999,-999.0,-999.0,-999,0.00,,,0.00,,2013-02-11 16:02:00,
2013-02-11 11:12:00,15.0,-99.9,-100.00,North,-999,-999.0,-999.0,-999,0.00,,,0.00,,2013-02-11 16:12:00,
2013-02-11 11:53:00,18.0,-99.9,-100.00,North,-999,-999.0,-999.0,-999,0.00,,,0.00,,2013-02-11 16:53:00,
2013-02-11 12:02:00,18.0,-99.9,-100.00,North,-999,-999.0,-999.0,-999,0.00,,,0.00,,2013-02-11 17:02:00,
2013-02-11 12:12:00,18.0,-99.9,-100.00,North,-999,-999.0,-999.0,-999,0.00,,,0.00,,2013-02-11 17:12:00,
2013-02-11 12:53:00,21.0,-99.9,-100.00,North,-999,-999.0,-999.0,-999,0.02,,,0.02,,2013-02-11 17:53:00,
2013-02-11 13:02:00,21.0,-99.9,-100.00,North,-999,-999.0,-999.0,-999,0.02,,,0.02,,2013-02-11 18:02:00,
2013-02-11 13:12:00,21.0,-99.9,-100.00,North,-999,-999.0,-999.0,-999,0.02,,,0.02,,2013-02-11 18:12:00,
2013-02-11 13:42:00,21.0,-99.9,-100.00,North,-999,-999.0,-999.0,-999,0.06,,,0.08,,2013-02-11 18:42:00,
2013-02-11 14:02:00,21.0,-99.9,-100.00,North,-999,-999.0,-999.0,-999,0.06,,,0.08,,2013-02-11 19:02:00,
2013-02-11 14:12:00,21.0,-99.9,-100.00,North,-999,-999.0,-999.0,-999,0.06,,,0.08,,2013-02-11 19:12:00,
2013-02-11 14:42:00,23.0,-99.9,-100.00,North,-999,-999.0,-999.0,-999,0.05,,,0.13,,2013-02-11 19:42:00,
2013-02-11 14:52:00,23.0,-99.9,-100.00,North,-999,-999.0,-999.0,-999,0.05,,,0.13,,2013-02-11 19:52:00,
2013-02-11 15:02:00,23.0,-99.9,-100.00,North,-999,-999.0,-999.0,-999,0.05,,,0.13,,2013-02-11 20:02:00,
2013-02-11 15:12:00,23.0,-99.9,-100.00,North,-999,-999.0,-999.0,-999,0.05,,,0.13,,2013-02-11 20:12:00,
2013-02-11 15:42:00,25.0,-99.9,-100.00,North,-999,-999.0,-999.0,-999,0.02,,,0.15,,2013-02-11 20:42:00,
2013-02-11 15:53:00,25.0,-99.9,-100.00,North,-999,-999.0,-999.0,-999,0.02,,,0.15,,2013-02-11 20:53:00,
2013-02-11 16:03:00,25.0,-99.9,-100.00,North,-999,-999.0,-999.0,-999,0.02,,,0.15,,2013-02-11 21:03:00,
2013-02-11 16:12:00,25.0,-99.9,-100.00,North,-999,-999.0,-999.0,-999,0.02,,,0.15,,2013-02-11 21:12:00,
2013-02-11 16:53:00,26.0,-99.9,-100.00,North,-999,-999.0,-999.0,-999,0.01,,,0.16,,2013-02-11 21:53:00,
2013-02-11 17:02:00,26.0,-99.9,-100.00,North,-999,-999.0,-999.0,-999,0.01,,,0.16,,2013-02-11 22:02:00,
2013-02-11 17:12:00,26.0,-99.9,-100.00,North,-999,-999.0,-999.0,-999,0.01,,,0.16,,2013-02-11 22:12:00,
2013-02-11 17:42:00,26.0,-99.9,-100.00,North,-999,-999.0,-999.0,-999,0.00,,,0.16,,2013-02-11 22:42:00,
2013-02-11 17:53:00,26.0,-99.9,-100.00,North,-999,-999.0,-999.0,-999,0.00,,,0.16,,2013-02-11 22:53:00,
2013-02-11 18:02:00,26.0,-99.9,-100.00,North,-999,-999.0,-999.0,-999,0.00,,,0.16,,2013-02-11 23:02:00,
2013-02-11 18:12:00,26.0,-99.9,-100.00,North,-999,-999.0,-999.0,-999,0.00,,,0.16,,2013-02-11 23:12:00,
2013-02-11 18:42:00,26.0,-99.9,-100.00,North,-999,-999.0,-999.0,-999,0.00,,,0.16,,2013-02-11 23:42:00,
2013-02-11 18:53:00,26.0,-99.9,-100.00,North,-999,-999.0,-999.0,-999,0.00,,,0.16,,2013-02-11 23:53:00,
2013-02-11 19:02:00,26.0,-99.9,-100.00,North,-999,-999.0,-999.0,-999,0.00,,,0.16,,2013-02-12 00:02:00,
2013-02-11 19:12:00,26.0,-99.9,-100.00,North,-999,-999.0,-999.0,-999,0.00,,,0.16,,2013-02-12 00:12:00,
2013-02-11 19:43:00,26.0,-99.9,-100.00,North,-999,-999.0,-999.0,-999,0.00,,,0.16,,2013-02-12 00:43:00,
2013-02-11 19:53:00,26.0,-99.9,-100.00,North,-999,-999.0,-999.0,-999,0.00,,,0.16,,2013-02-12 00:53:00,
2013-02-11 20:02:00,26.0,-99.9,-100.00,North,-999,-999.0,-999.0,-999,0.00,,,0.16,,2013-02-12 01:02:00,
2013-02-11 20:12:00,26.0,-99.9,-100.00,North,-999,-999.0,-999.0,-999,0.00,,,0.16,,2013-02-12 01:12:00,
2013-02-11 20:42:00,26.0,-99.9,-100.00,North,-999,-999.0,-999.0,-999,0.00,,,0.16,,2013-02-12 01:42:00,
2013-02-11 20:53:00,26.0,-99.9,-100.00,North,-999,-999.0,-999.0,-999,0.00,,,0.16,,2013-02-12 01:53:00,
2013-02-11 21:02:00,26.0,-99.9,-100.00,North,-999,-999.0,-999.0,-999,0.00,,,0.16,,2013-02-12 02:02:00,
2013-02-11 21:12:00,26.0,-99.9,-100.00,North,-999,-999.0,-999.0,-999,0.00,,,0.16,,2013-02-12 02:12:00,
2013-02-11 21:42:00,27.0,-99.9,-100.00,North,-999,-999.0,-999.0,-999,0.00,,,0.16,,2013-02-12 02:42:00,
2013-02-11 21:53:00,27.0,-99.9,-100.00,North,-999,-999.0,-999.0,-999,0.00,,,0.16,,2013-02-12 02:53:00,
2013-02-11 22:02:00,27.0,-99.9,-100.00,North,-999,-999.0,-999.0,-999,0.00,,,0.16,,2013-02-12 03:02:00,
2013-02-11 22:11:00,27.0,-99.9,-100.00,North,-999,-999.0,-999.0,-999,0.00,,,0.16,,2013-02-12 03:11:00,
2013-02-11 22:42:00,28.0,-99.9,-100.00,North,-999,-999.0,-999.0,-999,0.00,,,0.16,,2013-02-12 03:42:00,
2013-02-11 22:52:00,28.0,-99.9,-100.00,North,-999,-999.0,-999.0,-999,0.00,,,0.16,,2013-02-12 03:52:00,
2013-02-11 23:02:00,28.0,-99.9,-100.00,North,-999,-999.0,-999.0,-999,0.00,,,0.16,,2013-02-12 04:02:00,
2013-02-11 23:11:00,28.0,-99.9,-100.00,North,-999,-999.0,-999.0,-999,0.00,,,0.16,,2013-02-12 04:11:00,
2013-02-11 23:42:00,28.0,-99.9,-100.00,North,-999,-999.0,-999.0,-999,0.02,,,0.18,,2013-02-12 04:42:00,
2013-02-11 23:52:00,28.0,-99.9,-100.00,North,-999,-999.0,-999.0,-999,0.02,,,0.18,,2013-02-12 04:52:00,